Location: Augirein
(42.9320°N, 0.9181°E)
Time: 20:28:21
(UTC+00:00)

Cosmos 1898 Rocket - Pass Details

Date: 20 June 2021
Orbit: 754 x 783 km, 74.0° (Epoch: 23 July)

Event Time Altitude Azimuth Distance (km) Brightness Sun altitude
Rises 00:26:34 0° 343° (NNW) 3,246 7.8 -23.3°
Reaches altitude 10° 00:29:01 10° 348° (NNW) 2,311 6.9 -23.2°
Maximum altitude 00:34:10 56° 66° (ENE) 908 4.0 -23.1°
Enters shadow 00:36:08 35° 126° (SE) 1,218 4.3 -23.1°
